Location: Glencliff
(36.1226°N, 86.7183°W)
Time: 16:39:46
(UTC+00:00)

SJ-6F - Pass Details

Date: 25 August 2019
Orbit: 571 x 594 km, 97.7° (Epoch: 22 September)

Event Time Altitude Azimuth Distance (km) Brightness Sun altitude
Rises 10:12:07 0° 10° (N) 2,795 8.4 -12.4°
Reaches altitude 10° 10:14:16 10° 9° (N) 1,895 7.5 -12.0°
Maximum altitude 10:18:22 78° 283° (WNW) 597 4.4 -11.3°
Drops below altitude 10° 10:22:28 10° 198° (SSW) 1,895 6.7 -10.5°
Enters shadow 10:24:32 - 196° (SSW) 2,757 7.5 -10.1°
